When you browse on this site, cookies collect data to enhance your experience and personalize the content and advertising you see.
Visit our Privacy Policy to learn more. By continuing to use the site, you agree to this use of cookies and data.
  • In Hungary
  • List of Countries
  • For 7 days
  • Water Temperature
  • Weather Map
  • News
  • Weather Widgets
  • user-avatar
    Login

    Hourly Weather Trier

    Today, 31 March, Tuesday

    Time Temperature Precipitation Wind Pressure Humidity
    00:00 +2°C° 0 mm 2 mps 757 mmHg 92%
    01:00 +2°C° 0 mm 2 mps 757 mmHg 91%
    02:00 +3°C° 0 mm 2 mps 757 mmHg 90%
    03:00 +3°C° 0 mm 2 mps 756 mmHg 90%
    04:00 +3°C° 0 mm 2 mps 757 mmHg 89%
    05:00 +3°C° 0 mm 2 mps 757 mmHg 89%
    06:00 +3°C° 0 mm 2 mps 758 mmHg 87%
    07:00 +3°C° 0 mm 3 mps 758 mmHg 81%
    08:00 +4°C° 0 mm 4 mps 758 mmHg 75%
    09:00 +5°C° 0 mm 4 mps 758 mmHg 69%
    10:00 +6°C° 0 mm 4 mps 758 mmHg 63%
    11:00 +7°C° 0 mm 4 mps 758 mmHg 56%
    12:00 +7°C° 0 mm 4 mps 758 mmHg 49%
    13:00 +8°C° 0 mm 4 mps 757 mmHg 46%
    14:00 +8°C° 0 mm 4 mps 757 mmHg 44%
    15:00 +9°C° 0 mm 3 mps 756 mmHg 42%
    16:00 +7°C° 0 mm 3 mps 757 mmHg 48%
    17:00 +5°C° 0 mm 3 mps 757 mmHg 53%
    18:00 +4°C° 0 mm 2 mps 757 mmHg 59%
    19:00 +3°C° 0 mm 2 mps 757 mmHg 62%
    20:00 +2°C° 0 mm 2 mps 757 mmHg 64%
    21:00 +1°C° 0 mm 2 mps 757 mmHg 66%
    22:00 +1°C° 0 mm 2 mps 756 mmHg 68%
    23:00 -1°C° 0 mm 2 mps 756 mmHg 71%

    Tomorrow, 1 April, Wednesday

    Time Temperature Precipitation Wind Pressure Humidity
    00:00 +1°C° 0 mm 1 mps 756 mmHg 73%
    01:00 +1°C° 0 mm 1 mps 756 mmHg 73%
    02:00 0°C° 0 mm 1 mps 755 mmHg 74%
    03:00 0°C° 0 mm 1 mps 755 mmHg 74%
    04:00 0°C° 0 mm 1 mps 755 mmHg 72%
    05:00 +1°C° 0 mm 1 mps 755 mmHg 70%
    06:00 +1°C° 0 mm 1 mps 755 mmHg 67%
    07:00 +3°C° 0 mm 1 mps 755 mmHg 59%
    08:00 +4°C° 0 mm 2 mps 754 mmHg 51%
    09:00 +6°C° 0 mm 2 mps 754 mmHg 42%
    10:00 +8°C° 0 mm 2 mps 754 mmHg 40%
    11:00 +9°C° 0 mm 2 mps 753 mmHg 37%
    12:00 +10°C° 0 mm 2 mps 753 mmHg 34%
    13:00 +11°C° 0 mm 1 mps 752 mmHg 35%
    14:00 +12°C° 0 mm 1 mps 751 mmHg 36%
    15:00 +12°C° 0 mm 1 mps 751 mmHg 37%
    16:00 +10°C° 0 mm 1 mps 751 mmHg 44%
    17:00 +8°C° 0 mm 1 mps 750 mmHg 52%
    18:00 +6°C° 0 mm 1 mps 750 mmHg 59%
    19:00 +5°C° 0 mm 1 mps 750 mmHg 63%
    20:00 +4°C° 0 mm 1 mps 750 mmHg 66%
    21:00 +3°C° 0 mm 1 mps 750 mmHg 70%
    22:00 +3°C° 0 mm 1 mps 750 mmHg 71%
    23:00 +2°C° 0 mm 1 mps 750 mmHg 72%

    Day after tomorrow, 2 April, Thursday

    Time Temperature Precipitation Wind Pressure Humidity
    00:00 +2°C° 0 mm 1 mps 750 mmHg 73%
    01:00 +2°C° 0 mm 1 mps 750 mmHg 76%
    02:00 +1°C° 0 mm 1 mps 750 mmHg 79%
    03:00 +1°C° 0 mm 1 mps 749 mmHg 82%
    04:00 +2°C° 0 mm 1 mps 749 mmHg 81%
    05:00 +2°C° 0 mm 1 mps 749 mmHg 81%
    06:00 +2°C° 0 mm 1 mps 749 mmHg 80%
    07:00 +5°C° 0 mm 1 mps 749 mmHg 72%
    08:00 +7°C° 0 mm 1 mps 749 mmHg 63%
    09:00 +9°C° 0 mm 1 mps 749 mmHg 55%
    10:00 +10°C° 0 mm 1 mps 749 mmHg 53%
    11:00 +10°C° 0 mm 2 mps 748 mmHg 51%
    12:00 +10°C° 0 mm 2 mps 748 mmHg 49%
    13:00 +10°C° 0 mm 3 mps 748 mmHg 51%
    14:00 +10°C° 0 mm 3 mps 747 mmHg 52%
    15:00 +10°C° 0 mm 3 mps 747 mmHg 54%
    16:00 +8°C° 0 mm 3 mps 747 mmHg 59%
    17:00 +7°C° 0 mm 2 mps 747 mmHg 65%
    18:00 +6°C° 0 mm 2 mps 747 mmHg 70%
    19:00 +6°C° 0 mm 2 mps 747 mmHg 73%
    20:00 +5°C° 0 mm 2 mps 748 mmHg 75%
    21:00 +6°C° 0 mm 1 mps 748 mmHg 78%
    22:00 +5°C° 0 mm 2 mps 748 mmHg 80%
    23:00 +5°C° 0 mm 2 mps 748 mmHg 82%

    3 April, Friday

    Time Temperature Precipitation Wind Pressure Humidity
    00:00 +5°C° 0 mm 2 mps 748 mmHg 84%
    01:00 +5°C° 0 mm 2 mps 748 mmHg 85%
    02:00 +4°C° 0 mm 2 mps 748 mmHg 87%
    03:00 +4°C° 0 mm 2 mps 748 mmHg 89%
    04:00 +4°C° 0 mm 2 mps 748 mmHg 90%
    05:00 +5°C° 0 mm 2 mps 749 mmHg 91%
    06:00 +5°C° 0 mm 2 mps 749 mmHg 91%
    07:00 +6°C° 0 mm 2 mps 749 mmHg 88%
    08:00 +7°C° 0 mm 3 mps 749 mmHg 86%
    09:00 +7°C° 0 mm 3 mps 749 mmHg 83%
    10:00 +9°C° 0.1 mm 3 mps 750 mmHg 76%
    11:00 +10°C° 0.1 mm 4 mps 750 mmHg 69%
    12:00 +11°C° 0.1 mm 4 mps 750 mmHg 62%
    13:00 +11°C° 0.1 mm 4 mps 750 mmHg 61%
    14:00 +11°C° 0.1 mm 4 mps 750 mmHg 61%
    15:00 +11°C° 0.1 mm 3 mps 750 mmHg 61%
    16:00 +10°C° 0 mm 3 mps 750 mmHg 66%
    17:00 +9°C° 0 mm 2 mps 750 mmHg 71%
    18:00 +9°C° 0 mm 1 mps 751 mmHg 77%
    19:00 +7°C° 0 mm 1 mps 751 mmHg 81%
    20:00 +6°C° 0 mm 1 mps 752 mmHg 85%
    21:00 +5°C° 0 mm 1 mps 753 mmHg 89%
    22:00 +5°C° 0 mm 1 mps 753 mmHg 90%
    23:00 +4°C° 0 mm 1 mps 753 mmHg 90%

    4 April, Saturday

    Time Temperature Precipitation Wind Pressure Humidity
    00:00 +4°C° 0 mm 1 mps 753 mmHg 91%
    01:00 +3°C° 0 mm 1 mps 753 mmHg 90%
    02:00 +3°C° 0 mm 1 mps 753 mmHg 90%
    03:00 +3°C° 0 mm 1 mps 754 mmHg 90%
    04:00 +3°C° 0 mm 1 mps 754 mmHg 89%
    05:00 +4°C° 0 mm 1 mps 754 mmHg 88%
    06:00 +4°C° 0 mm 1 mps 755 mmHg 87%
    07:00 +6°C° 0 mm 1 mps 754 mmHg 79%
    08:00 +9°C° 0 mm 1 mps 754 mmHg 71%
    09:00 +10°C° 0 mm 2 mps 754 mmHg 64%
    10:00 +12°C° 0 mm 2 mps 754 mmHg 59%
    11:00 +14°C° 0 mm 2 mps 754 mmHg 54%
    12:00 +15°C° 0 mm 2 mps 754 mmHg 49%
    13:00 +15°C° 0 mm 2 mps 753 mmHg 49%
    14:00 +14°C° 0 mm 3 mps 753 mmHg 49%
    15:00 +16°C° 0 mm 3 mps 753 mmHg 49%
    16:00 +13°C° 0 mm 3 mps 753 mmHg 56%
    17:00 +11°C° 0 mm 3 mps 753 mmHg 63%
    18:00 +9°C° 0 mm 2 mps 753 mmHg 70%
    19:00 +9°C° 0 mm 2 mps 753 mmHg 72%
    20:00 +8°C° 0 mm 2 mps 753 mmHg 73%
    21:00 +7°C° 0 mm 2 mps 754 mmHg 75%
    22:00 +7°C° 0 mm 2 mps 753 mmHg 78%
    23:00 +6°C° 0 mm 2 mps 753 mmHg 80%

    5 April, Sunday

    Time Temperature Precipitation Wind Pressure Humidity
    00:00 +6°C° 0 mm 2 mps 753 mmHg 83%
    01:00 +6°C° 0 mm 2 mps 753 mmHg 85%
    02:00 +6°C° 0 mm 1 mps 753 mmHg 86%
    03:00 +6°C° 0 mm 1 mps 753 mmHg 88%
    04:00 +6°C° 0 mm 1 mps 753 mmHg 88%
    05:00 +6°C° 0 mm 1 mps 753 mmHg 87%
    06:00 +6°C° 0 mm 1 mps 753 mmHg 86%
    07:00 +9°C° 0 mm 1 mps 753 mmHg 78%
    08:00 +10°C° 0 mm 2 mps 753 mmHg 69%
    09:00 +14°C° 0 mm 2 mps 753 mmHg 60%
    10:00 +16°C° 0 mm 2 mps 752 mmHg 56%
    11:00 +17°C° 0 mm 3 mps 752 mmHg 53%
    12:00 +19°C° 0 mm 3 mps 752 mmHg 50%
    13:00 +19°C° 0 mm 3 mps 751 mmHg 49%
    14:00 +19°C° 0 mm 3 mps 751 mmHg 49%
    15:00 +19°C° 0 mm 3 mps 750 mmHg 48%
    16:00 +17°C° 0 mm 2 mps 750 mmHg 56%
    17:00 +15°C° 0 mm 2 mps 750 mmHg 63%
    18:00 +13°C° 0 mm 2 mps 749 mmHg 70%
    19:00 +12°C° 0 mm 2 mps 749 mmHg 71%
    20:00 +11°C° 0 mm 1 mps 749 mmHg 72%
    21:00 +10°C° 0 mm 1 mps 749 mmHg 72%
    22:00 +10°C° 0 mm 1 mps 749 mmHg 74%
    23:00 +9°C° 0 mm 1 mps 749 mmHg 76%
    Show more